Location: Bishopstone
(51.0167°N, 1.9000°W)
Time: 00:46:21
(UTC+00:00)

CZ-2C R/B - Pass Details

Date: 16 September 2019
Orbit: 704 x 907 km, 98.1° (Epoch: 20 October)

Event Time Altitude Azimuth Distance (km) Brightness Sun altitude
Exits shadow 20:45:10 27° 185° (S) 1,495 4.2 -22.1°
Maximum altitude 20:48:01 63° 259° (W) 903 3.4 -22.4°
Drops below altitude 10° 20:53:28 10° 341° (NNW) 2,478 6.4 -23.1°
Sets 20:55:57 0° 344° (NNW) 3,447 7.2 -23.4°
